Time,TemperatureF,DewpointF,PressureIn,WindDirection,WindDirectionDegrees,WindSpeedMPH,WindSpeedGustMPH,Humidity,HourlyPrecipIn,Conditions,Clouds,dailyrainin,SolarRadiationWatts/m^2,SoftwareType,DateUTC
2013-03-05 00:13:00,45.6,43.0,30.15,ENE,78,2.0,3.0,90,0.00,,,0.00,0,weatherlink.com 1.10,2013-03-05 05:13:00,
2013-03-05 00:28:00,45.9,43.0,30.14,East,85,1.0,3.0,88,0.00,,,0.00,0,weatherlink.com 1.10,2013-03-05 05:28:00,
2013-03-05 00:43:00,45.5,42.0,30.14,ESE,118,0.0,1.0,87,0.00,,,0.00,0,weatherlink.com 1.10,2013-03-05 05:43:00,
2013-03-05 00:58:00,44.1,41.0,30.14,ESE,118,0.0,0.0,89,0.00,,,0.00,0,weatherlink.com 1.10,2013-03-05 05:58:00,
2013-03-05 01:13:00,43.9,42.0,30.14,ESE,118,0.0,0.0,91,0.00,,,0.00,0,weatherlink.com 1.10,2013-03-05 06:13:00,
2013-03-05 01:28:00,43.4,41.0,30.14,ESE,118,0.0,0.0,91,0.00,,,0.00,0,weatherlink.com 1.10,2013-03-05 06:28:00,
2013-03-05 01:43:00,43.6,41.0,30.13,ESE,118,1.0,2.0,91,0.00,,,0.00,0,weatherlink.com 1.10,2013-03-05 06:43:00,
2013-03-05 01:58:00,43.7,41.0,30.13,ESE,118,0.0,1.0,91,0.00,,,0.00,0,weatherlink.com 1.10,2013-03-05 06:58:00,
2013-03-05 02:13:00,43.2,41.0,30.13,ESE,118,0.0,1.0,91,0.00,,,0.00,0,weatherlink.com 1.10,2013-03-05 07:13:00,
2013-03-05 02:28:00,42.7,41.0,30.14,ESE,118,0.0,1.0,92,0.00,,,0.00,0,weatherlink.com 1.10,2013-03-05 07:28:00,
2013-03-05 02:43:00,42.6,41.0,30.13,ESE,118,0.0,0.0,92,0.00,,,0.00,0,weatherlink.com 1.10,2013-03-05 07:43:00,
2013-03-05 02:58:00,42.3,40.0,30.13,ESE,118,0.0,0.0,92,0.00,,,0.00,0,weatherlink.com 1.10,2013-03-05 07:58:00,
2013-03-05 03:13:00,41.8,40.0,30.13,ESE,118,0.0,1.0,93,0.00,,,0.00,0,weatherlink.com 1.10,2013-03-05 08:13:00,
2013-03-05 03:28:00,41.4,40.0,30.13,ESE,118,0.0,1.0,93,0.00,,,0.00,0,weatherlink.com 1.10,2013-03-05 08:28:00,
2013-03-05 03:43:00,41.0,39.0,30.12,ESE,118,0.0,1.0,93,0.00,,,0.00,0,weatherlink.com 1.10,2013-03-05 08:43:00,
2013-03-05 03:58:00,41.0,39.0,30.12,ESE,118,0.0,0.0,94,0.00,,,0.00,0,weatherlink.com 1.10,2013-03-05 08:58:00,
2013-03-05 04:13:00,40.7,39.0,30.12,ESE,118,0.0,1.0,94,0.00,,,0.00,0,weatherlink.com 1.10,2013-03-05 09:13:00,
2013-03-05 04:28:00,40.2,39.0,30.12,ESE,118,0.0,0.0,95,0.00,,,0.00,0,weatherlink.com 1.10,2013-03-05 09:28:00,
2013-03-05 04:43:00,40.3,39.0,30.11,ESE,118,0.0,0.0,95,0.00,,,0.00,0,weatherlink.com 1.10,2013-03-05 09:43:00,
2013-03-05 04:58:00,40.3,39.0,30.12,ESE,118,0.0,1.0,95,0.00,,,0.00,0,weatherlink.com 1.10,2013-03-05 09:58:00,
2013-03-05 05:13:00,40.5,39.0,30.12,ESE,118,0.0,0.0,95,0.00,,,0.00,0,weatherlink.com 1.10,2013-03-05 10:13:00,
2013-03-05 05:28:00,40.2,39.0,30.13,ESE,118,0.0,1.0,95,0.00,,,0.00,0,weatherlink.com 1.10,2013-03-05 10:28:00,
2013-03-05 05:43:00,40.7,40.0,30.13,ESE,118,0.0,0.0,96,0.00,,,0.00,0,weatherlink.com 1.10,2013-03-05 10:43:00,
2013-03-05 05:58:00,40.3,39.0,30.14,ESE,118,0.0,1.0,95,0.00,,,0.00,0,weatherlink.com 1.10,2013-03-05 10:58:00,
2013-03-05 06:13:00,40.4,39.0,30.14,ESE,118,0.0,0.0,96,0.00,,,0.00,0,weatherlink.com 1.10,2013-03-05 11:13:00,
2013-03-05 06:28:00,40.4,39.0,30.14,ESE,118,0.0,0.0,96,0.00,,,0.00,0,weatherlink.com 1.10,2013-03-05 11:28:00,
2013-03-05 06:43:00,40.2,39.0,30.14,ESE,118,0.0,1.0,96,0.00,,,0.00,0,weatherlink.com 1.10,2013-03-05 11:43:00,
2013-03-05 06:58:00,40.2,39.0,30.15,ESE,118,0.0,1.0,96,0.00,,,0.00,11,weatherlink.com 1.10,2013-03-05 11:58:00,
2013-03-05 07:13:00,41.0,40.0,30.16,ESE,118,0.0,1.0,96,0.00,,,0.00,26,weatherlink.com 1.10,2013-03-05 12:13:00,
2013-03-05 07:28:00,42.5,42.0,30.16,ESE,118,0.0,0.0,96,0.00,,,0.00,79,weatherlink.com 1.10,2013-03-05 12:28:00,
2013-03-05 07:43:00,46.1,45.0,30.16,ESE,118,0.0,0.0,96,0.00,,,0.00,120,weatherlink.com 1.10,2013-03-05 12:43:00,
2013-03-05 07:58:00,50.1,48.0,30.16,ESE,118,1.0,1.0,93,0.00,,,0.00,165,weatherlink.com 1.10,2013-03-05 12:58:00,
2013-03-05 08:14:00,53.7,50.0,30.16,ESE,118,1.0,3.0,88,0.00,,,0.00,216,weatherlink.com 1.10,2013-03-05 13:14:00,
2013-03-05 08:29:00,56.2,51.0,30.16,SE,126,1.0,4.0,82,0.00,,,0.00,267,weatherlink.com 1.10,2013-03-05 13:29:00,
2013-03-05 08:44:00,58.4,51.0,30.16,SE,126,1.0,5.0,76,0.00,,,0.00,323,weatherlink.com 1.10,2013-03-05 13:44:00,
2013-03-05 08:59:00,60.4,52.0,30.17,SE,146,2.0,5.0,74,0.00,,,0.00,380,weatherlink.com 1.10,2013-03-05 13:59:00,
2013-03-05 09:14:00,62.4,53.0,30.17,ESE,111,3.0,6.0,71,0.00,,,0.00,439,weatherlink.com 1.10,2013-03-05 14:14:00,
2013-03-05 09:29:00,64.1,53.0,30.16,ESE,102,2.0,7.0,68,0.00,,,0.00,492,weatherlink.com 1.10,2013-03-05 14:29:00,
2013-03-05 09:44:00,64.7,54.0,30.16,ESE,117,3.0,6.0,68,0.00,,,0.00,543,weatherlink.com 1.10,2013-03-05 14:44:00,
2013-03-05 09:59:00,66.3,56.0,30.17,SSW,193,4.0,5.0,69,0.00,,,0.00,589,weatherlink.com 1.10,2013-03-05 14:59:00,
2013-03-05 10:14:00,67.5,56.0,30.16,South,181,1.0,6.0,67,0.00,,,0.00,642,weatherlink.com 1.10,2013-03-05 15:14:00,
2013-03-05 10:29:00,69.4,57.0,30.16,SSW,210,3.0,6.0,66,0.00,,,0.00,682,weatherlink.com 1.10,2013-03-05 15:29:00,
2013-03-05 10:44:00,71.4,59.0,30.16,SSW,207,3.0,6.0,64,0.00,,,0.00,721,weatherlink.com 1.10,2013-03-05 15:44:00,
2013-03-05 10:59:00,71.0,58.0,30.16,SSE,157,2.0,6.0,63,0.00,,,0.00,758,weatherlink.com 1.10,2013-03-05 15:59:00,
2013-03-05 11:14:00,71.2,58.0,30.17,South,189,1.0,7.0,64,0.00,,,0.00,714,weatherlink.com 1.10,2013-03-05 16:14:00,
2013-03-05 11:29:00,71.7,59.0,30.16,South,184,1.0,9.0,65,0.00,,,0.00,816,weatherlink.com 1.10,2013-03-05 16:29:00,
2013-03-05 11:44:00,74.1,59.0,30.17,SSW,198,8.0,9.0,60,0.00,,,0.00,911,weatherlink.com 1.10,2013-03-05 16:44:00,
2013-03-05 11:59:00,73.0,58.0,30.16,SW,219,6.0,7.0,60,0.00,,,0.00,858,weatherlink.com 1.10,2013-03-05 16:59:00,
2013-03-05 12:14:00,72.5,59.0,30.16,SSW,203,6.0,8.0,63,0.00,,,0.00,877,weatherlink.com 1.10,2013-03-05 17:14:00,
2013-03-05 12:29:00,73.1,59.0,30.15,SW,217,4.0,8.0,62,0.00,,,0.00,891,weatherlink.com 1.10,2013-03-05 17:29:00,
2013-03-05 12:44:00,72.8,59.0,30.14,SW,230,2.0,8.0,63,0.00,,,0.00,891,weatherlink.com 1.10,2013-03-05 17:44:00,
2013-03-05 12:59:00,72.8,58.0,30.14,SW,225,3.0,11.0,61,0.00,,,0.00,898,weatherlink.com 1.10,2013-03-05 17:59:00,
2013-03-05 13:14:00,75.2,60.0,30.13,SSW,198,1.0,9.0,60,0.00,,,0.00,893,weatherlink.com 1.10,2013-03-05 18:14:00,
2013-03-05 13:30:00,74.3,59.0,30.12,West,263,5.0,9.0,59,0.00,,,0.00,881,weatherlink.com 1.10,2013-03-05 18:30:00,
2013-03-05 13:45:00,73.2,58.0,30.11,SSW,200,7.0,12.0,59,0.00,,,0.00,870,weatherlink.com 1.10,2013-03-05 18:45:00,
2013-03-05 14:00:00,74.8,58.0,30.11,SW,232,4.0,8.0,57,0.00,,,0.00,854,weatherlink.com 1.10,2013-03-05 19:00:00,
2013-03-05 14:15:00,74.4,59.0,30.11,South,182,1.0,9.0,60,0.00,,,0.00,833,weatherlink.com 1.10,2013-03-05 19:15:00,
2013-03-05 14:30:00,73.6,58.0,30.10,WSW,237,6.0,10.0,59,0.00,,,0.00,803,weatherlink.com 1.10,2013-03-05 19:30:00,
2013-03-05 14:45:00,73.0,58.0,30.10,SW,225,8.0,12.0,59,0.00,,,0.00,779,weatherlink.com 1.10,2013-03-05 19:45:00,
2013-03-05 15:00:00,74.0,58.0,30.10,SW,236,7.0,11.0,57,0.00,,,0.00,744,weatherlink.com 1.10,2013-03-05 20:00:00,
2013-03-05 15:15:00,74.6,59.0,30.10,SSE,150,4.0,9.0,58,0.00,,,0.00,705,weatherlink.com 1.10,2013-03-05 20:15:00,
2013-03-05 15:30:00,72.3,58.0,30.10,SSW,213,6.0,10.0,61,0.00,,,0.00,663,weatherlink.com 1.10,2013-03-05 20:30:00,
2013-03-05 15:45:00,73.3,59.0,30.10,SW,225,5.0,10.0,61,0.00,,,0.00,617,weatherlink.com 1.10,2013-03-05 20:45:00,
2013-03-05 16:00:00,72.6,59.0,30.10,SSW,201,5.0,11.0,62,0.00,,,0.00,566,weatherlink.com 1.10,2013-03-05 21:00:00,
2013-03-05 16:15:00,74.1,60.0,30.10,WSW,238,10.0,10.0,61,0.00,,,0.00,513,weatherlink.com 1.10,2013-03-05 21:15:00,
2013-03-05 16:30:00,71.4,58.0,30.09,SSW,213,3.0,12.0,63,0.00,,,0.00,457,weatherlink.com 1.10,2013-03-05 21:30:00,
2013-03-05 16:45:00,73.8,59.0,30.09,SSW,200,5.0,7.0,60,0.00,,,0.00,401,weatherlink.com 1.10,2013-03-05 21:45:00,
2013-03-05 17:00:00,73.0,59.0,30.09,SSW,196,5.0,7.0,62,0.00,,,0.00,341,weatherlink.com 1.10,2013-03-05 22:00:00,
2013-03-05 17:15:00,70.3,58.0,30.09,SW,236,5.0,8.0,65,0.00,,,0.00,281,weatherlink.com 1.10,2013-03-05 22:15:00,
2013-03-05 17:30:00,70.5,59.0,30.09,SSW,205,5.0,9.0,66,0.00,,,0.00,220,weatherlink.com 1.10,2013-03-05 22:30:00,
2013-03-05 17:45:00,70.8,59.0,30.09,SSW,197,3.0,7.0,67,0.00,,,0.00,158,weatherlink.com 1.10,2013-03-05 22:45:00,
2013-03-05 18:00:00,69.1,59.0,30.08,SW,216,5.0,6.0,69,0.00,,,0.00,91,weatherlink.com 1.10,2013-03-05 23:00:00,
2013-03-05 18:15:00,66.9,58.0,30.08,SSW,206,2.0,4.0,74,0.00,,,0.00,25,weatherlink.com 1.10,2013-03-05 23:15:00,
2013-03-05 18:30:00,65.0,58.0,30.08,SSW,205,1.0,5.0,79,0.00,,,0.00,9,weatherlink.com 1.10,2013-03-05 23:30:00,
2013-03-05 18:45:00,64.2,59.0,30.07,South,186,1.0,5.0,82,0.00,,,0.00,0,weatherlink.com 1.10,2013-03-05 23:45:00,
2013-03-05 19:00:00,63.6,58.0,30.07,South,180,1.0,4.0,83,0.00,,,0.00,0,weatherlink.com 1.10,2013-03-06 00:00:00,
2013-03-05 19:15:00,63.7,59.0,30.07,SW,214,2.0,5.0,84,0.00,,,0.00,0,weatherlink.com 1.10,2013-03-06 00:15:00,
2013-03-05 19:30:00,63.9,59.0,30.06,SSW,194,2.0,9.0,84,0.00,,,0.00,0,weatherlink.com 1.10,2013-03-06 00:30:00,
2013-03-05 19:45:00,63.8,59.0,30.07,South,185,0.0,6.0,85,0.00,,,0.00,0,weatherlink.com 1.10,2013-03-06 00:45:00,
2013-03-05 20:00:00,63.5,60.0,30.06,South,179,2.0,7.0,87,0.00,,,0.00,0,weatherlink.com 1.10,2013-03-06 01:00:00,
2013-03-05 20:15:00,63.4,60.0,30.06,SSW,213,2.0,7.0,88,0.00,,,0.00,0,weatherlink.com 1.10,2013-03-06 01:15:00,
2013-03-05 20:30:00,63.3,60.0,30.06,SSW,195,3.0,6.0,89,0.00,,,0.00,0,weatherlink.com 1.10,2013-03-06 01:30:00,
2013-03-05 20:45:00,63.4,60.0,30.05,South,188,4.0,7.0,89,0.00,,,0.00,0,weatherlink.com 1.10,2013-03-06 01:45:00,
2013-03-05 21:00:00,63.4,61.0,30.05,South,183,2.0,7.0,90,0.00,,,0.00,0,weatherlink.com 1.10,2013-03-06 02:00:00,
2013-03-05 21:15:00,63.6,61.0,30.05,SW,215,6.0,8.0,90,0.00,,,0.00,0,weatherlink.com 1.10,2013-03-06 02:15:00,
2013-03-05 21:30:00,63.8,61.0,30.05,SSE,147,2.0,10.0,90,0.00,,,0.00,0,weatherlink.com 1.10,2013-03-06 02:30:00,
2013-03-05 21:45:00,63.8,61.0,30.05,SSW,203,2.0,9.0,91,0.00,,,0.00,0,weatherlink.com 1.10,2013-03-06 02:45:00,
2013-03-05 22:00:00,63.8,62.0,30.05,SSW,213,4.0,9.0,92,0.00,,,0.00,0,weatherlink.com 1.10,2013-03-06 03:00:00,
2013-03-05 22:15:00,63.8,62.0,30.05,SW,215,7.0,10.0,92,0.00,,,0.00,0,weatherlink.com 1.10,2013-03-06 03:15:00,
2013-03-05 22:30:00,64.2,62.0,30.05,SSW,205,3.0,10.0,92,0.00,,,0.00,0,weatherlink.com 1.10,2013-03-06 03:30:00,
2013-03-05 22:45:00,64.5,62.0,30.05,SSW,198,4.0,7.0,92,0.00,,,0.00,0,weatherlink.com 1.10,2013-03-06 03:45:00,
2013-03-05 23:00:00,64.8,62.0,30.05,SSW,211,5.0,8.0,91,0.00,,,0.00,0,weatherlink.com 1.10,2013-03-06 04:00:00,
2013-03-05 23:16:00,64.8,62.0,30.05,SSW,211,3.0,8.0,91,0.00,,,0.00,0,weatherlink.com 1.10,2013-03-06 04:16:00,
2013-03-05 23:30:00,64.5,62.0,30.04,SSW,205,2.0,9.0,91,0.00,,,0.00,0,weatherlink.com 1.10,2013-03-06 04:30:00,
2013-03-05 23:45:00,64.5,62.0,30.04,SW,217,6.0,7.0,91,0.00,,,0.00,0,weatherlink.com 1.10,2013-03-06 04:45:00,